TimeCST,TemperatureF,Dew PointF,Humidity,Sea Level PressureIn,VisibilityMPH,Wind Direction,Wind SpeedMPH,Gust SpeedMPH,PrecipitationIn,Events,Conditions,WindDirDegrees,DateUTC
12:53 AM,37.0,28.0,70,30.20,10.0,North,5.8,-,N/A,,Overcast,360,2013-01-25 06:53:00
1:01 AM,37.4,28.4,70,30.18,10.0,NE,4.6,-,N/A,,Overcast,40,2013-01-25 07:01:00
1:53 AM,37.0,28.9,73,30.15,10.0,SE,6.9,-,N/A,,Overcast,140,2013-01-25 07:53:00
2:53 AM,37.9,30.0,73,30.13,10.0,Calm,Calm,-,N/A,,Overcast,0,2013-01-25 08:53:00
3:53 AM,39.0,30.0,70,30.10,10.0,Calm,Calm,-,N/A,,Overcast,0,2013-01-25 09:53:00
4:28 AM,39.2,30.2,70,30.09,10.0,NNE,3.5,-,N/A,,Overcast,30,2013-01-25 10:28:00
4:53 AM,39.9,32.0,73,30.09,10.0,North,5.8,-,N/A,,Overcast,10,2013-01-25 10:53:00
5:12 AM,39.2,32.0,75,30.09,10.0,North,6.9,-,N/A,,Overcast,10,2013-01-25 11:12:00
5:53 AM,37.9,30.0,73,30.12,10.0,NNW,9.2,-,N/A,,Overcast,340,2013-01-25 11:53:00
6:53 AM,37.0,28.0,70,30.15,10.0,North,8.1,-,N/A,,Overcast,350,2013-01-25 12:53:00
7:37 AM,33.8,30.2,87,30.17,2.5,North,10.4,-,0.00,Snow,Light Snow,350,2013-01-25 13:37:00
7:53 AM,34.0,32.0,92,30.18,1.2,NNW,9.2,-,0.00,Snow,Light Snow,340,2013-01-25 13:53:00
8:13 AM,33.8,33.8,100,30.18,1.8,NNW,8.1,-,0.00,Rain,Light Freezing Rain,340,2013-01-25 14:13:00
8:26 AM,33.8,33.8,100,30.17,1.5,NNW,5.8,-,0.00,Rain,Light Freezing Rain,330,2013-01-25 14:26:00
8:53 AM,34.0,34.0,100,30.19,2.0,NNW,6.9,-,0.00,Rain,Light Freezing Rain,340,2013-01-25 14:53:00
9:40 AM,33.8,33.8,100,30.23,2.5,North,9.2,-,0.01,,Overcast,350,2013-01-25 15:40:00
9:50 AM,35.6,33.8,93,30.22,2.0,North,9.2,-,0.01,Rain,Light Freezing Rain,360,2013-01-25 15:50:00
9:53 AM,35.1,34.0,96,30.23,2.0,North,8.1,-,0.01,Rain,Light Freezing Rain,360,2013-01-25 15:53:00
10:11 AM,35.6,33.8,93,30.23,1.8,North,5.8,-,0.00,Rain,Light Freezing Rain,350,2013-01-25 16:11:00
10:20 AM,35.6,33.8,93,30.23,2.0,North,6.9,-,0.00,Rain,Light Freezing Rain,360,2013-01-25 16:20:00
10:51 AM,35.6,35.6,100,30.22,2.5,NNW,5.8,-,0.00,,Overcast,340,2013-01-25 16:51:00
10:53 AM,36.0,35.1,97,30.23,2.5,NNW,4.6,-,0.00,Rain,Light Freezing Rain,340,2013-01-25 16:53:00
11:17 AM,35.6,35.6,100,30.22,3.0,North,4.6,-,0.00,,Overcast,360,2013-01-25 17:17:00
11:23 AM,35.6,35.6,100,30.21,3.0,NNW,5.8,-,0.00,Rain,Light Freezing Rain,340,2013-01-25 17:23:00
11:53 AM,37.0,36.0,96,30.20,4.0,North,4.6,-,0.00,,Overcast,360,2013-01-25 17:53:00
12:49 PM,37.4,37.4,100,30.18,4.0,NNW,4.6,-,0.00,,Overcast,340,2013-01-25 18:49:00
12:53 PM,37.9,37.0,97,30.19,4.0,NNW,3.5,-,0.00,,Overcast,340,2013-01-25 18:53:00
1:09 PM,37.4,37.4,100,30.18,4.0,NNW,3.5,-,N/A,,Overcast,340,2013-01-25 19:09:00
1:53 PM,39.0,37.9,96,30.17,6.0,NNW,5.8,-,N/A,,Overcast,340,2013-01-25 19:53:00
2:04 PM,39.2,37.4,93,30.17,6.0,North,3.5,-,N/A,,Overcast,350,2013-01-25 20:04:00
2:45 PM,42.8,39.2,87,30.17,8.0,NNE,5.8,-,N/A,,Overcast,20,2013-01-25 20:45:00
2:53 PM,42.1,39.0,89,30.18,8.0,North,6.9,-,N/A,,Overcast,10,2013-01-25 20:53:00
3:53 PM,44.1,39.9,85,30.18,9.0,North,5.8,-,N/A,,Overcast,360,2013-01-25 21:53:00
4:53 PM,45.0,39.0,80,30.19,10.0,NNE,4.6,-,N/A,,Overcast,20,2013-01-25 22:53:00
5:11 PM,44.6,39.2,81,30.19,9.0,Calm,Calm,-,N/A,,Scattered Clouds,0,2013-01-25 23:11:00
5:53 PM,42.1,37.9,85,30.21,10.0,ENE,4.6,-,N/A,,Clear,60,2013-01-25 23:53:00
6:53 PM,41.0,37.9,89,30.23,9.0,Calm,Calm,-,N/A,,Clear,0,2013-01-26 00:53:00
7:53 PM,39.0,37.0,93,30.23,6.0,Calm,Calm,-,N/A,,Clear,0,2013-01-26 01:53:00
8:53 PM,37.0,36.0,96,30.23,3.0,Calm,Calm,-,N/A,,Clear,0,2013-01-26 02:53:00
9:25 PM,35.6,35.6,100,30.23,2.5,Calm,Calm,-,N/A,,Clear,0,2013-01-26 03:25:00
9:49 PM,37.4,35.6,93,30.24,1.2,Calm,Calm,-,N/A,,Clear,0,2013-01-26 03:49:00
9:53 PM,37.0,36.0,96,30.24,1.8,Calm,Calm,-,N/A,,Clear,0,2013-01-26 03:53:00
10:01 PM,35.6,35.6,100,30.24,0.8,Calm,Calm,-,N/A,,Mist,0,2013-01-26 04:01:00
10:13 PM,33.8,33.8,100,30.25,1.2,NNW,4.6,-,N/A,,Partly Cloudy,340,2013-01-26 04:13:00
10:22 PM,35.6,35.6,100,30.25,2.5,NNW,3.5,-,N/A,,Partly Cloudy,340,2013-01-26 04:22:00
10:46 PM,35.6,35.6,100,30.25,4.0,Calm,Calm,-,N/A,,Clear,0,2013-01-26 04:46:00
10:53 PM,36.0,36.0,100,30.25,4.0,Calm,Calm,-,N/A,,Clear,0,2013-01-26 04:53:00
11:33 PM,35.6,33.8,93,30.25,1.8,Calm,Calm,-,N/A,,Clear,0,2013-01-26 05:33:00
11:51 PM,33.8,32.0,93,30.25,3.0,North,4.6,-,N/A,,Clear,10,2013-01-26 05:51:00
11:53 PM,34.0,33.1,96,30.25,4.0,NNE,4.6,-,N/A,,Clear,20,2013-01-26 05:53:00